BEIDOU-3 G1 (C59)

Last updated on Sat Aug 15 2026 00:03:26 GMT+0000 (Coordinated Universal Time)

1 43683U 18085A 26226.59965222 -.00000125 00000+0 00000+0 0 9991 2 43683 2.5381 95.7270 0006841 14.1596 228.9902 1.00269794 28640
UTC large
Height (km)
Speed (km/s)
/
Latitude / Longitude
Inclination (degrees)
Orbital Period (minutes)
Azimuth
Elevation
Range (km)
Doppler Factor

Next 0 passes for location: London (51.5072 / 0.1276)

No passes found over London.
BEIDOU-3 G1 (C59)